Regional Weather Roundup
Issued by NWS Little Rock, AR

Home | Current Version | Previous Version | Text Only | Print | Product List | Glossary On
Versions: 1 2 3 4 5 6 7 8 9 10 11 12 13 14 15 16 17 18 19 20 21 22 23 24 25 26 27 28 29 30 31 32
000
ASUS44 KLZK 011812
RWRLZK

WEATHER ROUNDUP FOR ARKANSAS
NATIONAL WEATHER SERVICE LITTLE ROCK AR
1200 PM CST WED MAR 01 2017

NOTE: "FAIR" INDICATES FEW OR NO CLOUDS BELOW 12,000 FEET WITH NO
SIGNIFICANT WEATHER AND/OR OBSTRUCTIONS TO VISIBILITY.

ARZ001-003-010-029-011900-
NORTHWEST ARKANSAS

CITY           SKY/WX    TMP DP  RH WIND       PRES   REMARKS
FAYETTEVILLE   SUNNY     53  21  28 NW21G28   30.16R
6HR MIN TEMP:  40; 6HR MAX TEMP:  53;

FORT SMITH     SUNNY     60  18  19 N15       30.16S
6HR MIN TEMP:  48; 6HR MAX TEMP:  60;

HARRISON       SUNNY     53  22  29 W20G33    30.09R
6HR MIN TEMP:  42; 6HR MAX TEMP:  53;

BENTONVILLE    SUNNY     52  27  37 NW20G26   30.16R
6HR MIN TEMP:  39; 6HR MAX TEMP:  52;

ROGERS         SUNNY     51  25  36 NW14G24   30.15R
6HR MIN TEMP:  40; 6HR MAX TEMP:  51;

SILOAM SPGS    SUNNY     54  23  30 NW18G29   30.17R
6HR MIN TEMP:  39; 6HR MAX TEMP:  54;

HIGHFILL       SUNNY     52  23  32 NW22G32   30.15R
6HR MIN TEMP:  40; 6HR MAX TEMP:  53; 6HR PCP: TRACE;

SPRINGDALE     SUNNY     52  23  32 W16G28    30.16R
$$

ARZ004-005-016-011900-
NORTH CENTRAL ARKANSAS

CITY           SKY/WX    TMP DP  RH WIND       PRES   REMARKS
FLIPPIN        SUNNY     57  27  30 W18G25    30.06R
6HR MIN TEMP:  46; 6HR MAX TEMP:  57;

MTN HOME       LGT RAIN  54  29  38 NW10G24   30.06R
6HR MIN TEMP:  46; 6HR MAX TEMP:  54; 6HR PCP: TRACE;

$$

ARZ040-041-011900-
WEST CENTRAL ARKANSAS

CITY           SKY/WX    TMP DP  RH WIND       PRES   REMARKS
MENA           SUNNY     61  32  33 W16       30.15S
MOUNT IDA      SUNNY     59  28  30 NW10G21   30.10R
6HR MIN TEMP:  53; 6HR MAX TEMP:  60; 6HR PCP: TRACE;

$$

ARZ009-017-025-026-028-011900-
NORTHEAST ARKANSAS

CITY           SKY/WX    TMP DP  RH WIND       PRES   REMARKS
CORNING        FAIR      61  39  44 W23       29.98R
JONESBORO      MOSUNNY   60  41  49 W17G31    29.97R
6HR MIN TEMP:  58; 6HR MAX TEMP:  63;

WALNUT RIDGE   SUNNY     61  36  39 NW25G32   29.99R
6HR MIN TEMP:  57; 6HR MAX TEMP:  63;

BLYTHEVILLE    MOSUNNY   63  48  58 NW20G28   29.95R
6HR MIN TEMP:  59; 6HR MAX TEMP:  64; 6HR PCP: TRACE;

$$

ARZ022-023-033-042-044-011900-
CENTRAL ARKANSAS

CITY           SKY/WX    TMP DP  RH WIND       PRES   REMARKS
LITTLE ROCK    MOSUNNY   63  38  39 NW18G26   30.05R
6HR MIN TEMP:  60; 6HR MAX TEMP:  69; 6HR PCP:  0.21;

N LITTLE ROCK    N/A     60  39  45 NW10G22   30.05R
6HR MIN TEMP:  58; 6HR MAX TEMP:  67;

JACKSONVILLE   SUNNY     63  39  40 W15       30.04R
6HR MIN TEMP:  60; 6HR MAX TEMP:  64; 6HR PCP:  0.01;

SEARCY         SUNNY     62  36  37 NW14G22   30.05R
6HR MIN TEMP:  58; 6HR MAX TEMP:  62;

HOT SPRINGS    SUNNY     62  30  29 NW16G23   30.09R
6HR MIN TEMP:  57; 6HR MAX TEMP:  70; 6HR PCP: TRACE;

RUSSELLVILLE   SUNNY     59  33  37 W18G26    30.10R
6HR MIN TEMP:  54; 6HR MAX TEMP:  60;

CLINTON        FAIR      61  28  29 NW16      30.07R
$$

ARZ036-011900-
EAST ARKANSAS

CITY           SKY/WX    TMP DP  RH WIND       PRES   REMARKS
WEST MEMPHIS   MOSUNNY   62  48  60 NW13G25   29.97R
6HR MIN TEMP:  60; 6HR MAX TEMP:  63; 6HR PCP:  0.26;

$$

ARZ050-053-066-070-073-011900-
SOUTHWEST ARKANSAS

CITY           SKY/WX    TMP DP  RH WIND       PRES   REMARKS
ARKADELPHIA    FAIR      63  35  35 N14G20    30.10R
6HR MIN TEMP:  59; 6HR MAX TEMP:  69;

CAMDEN         MOSUNNY   68  37  32 NW12G18   30.08R
TEXARKANA      MOSUNNY   63  38  39 NW13      30.12R
6HR MIN TEMP:  58; 6HR MAX TEMP:  69;

EL DORADO      PTSUNNY   70  43  37 NW13      30.07R
6HR MIN TEMP:  67; 6HR MAX TEMP:  75;

DE QUEEN       SUNNY     62  30  29 N10G23    30.14R
6HR MIN TEMP:  53; 6HR MAX TEMP:  62;

$$

ARZ056-057-069-011900-
SOUTHEAST ARKANSAS

CITY           SKY/WX    TMP DP  RH WIND       PRES   REMARKS
PINE BLUFF     SUNNY     69  45  41 NW12G23   30.04R
6HR MIN TEMP:  63; 6HR MAX TEMP:  73; 6HR PCP: TRACE;

STUTTGART      SUNNY     64  39  39 NW21      30.03S
6HR MIN TEMP:  61; 6HR MAX TEMP:  72;

MONTICELLO     PTSUNNY   72  46  39 NW13G24   30.01R
6HR MIN TEMP:  69; 6HR MAX TEMP:  77;


$$






USA.gov is the U.S. government's official web portal to all federal, state and local government web resources and services.